Weather History for Laredo, TX

Change the Weather History Date:

Tuesday, January 29, 2013

  Actual Average Record
Temperature  
Mean Temperature 79 °F 58 °F  
Max Temperature 94 °F 69 °F 94 °F (2013)
Min Temperature 64 °F 47 °F 22 °F (1904)
Degree Days  
Heating Degree Days 0 8  
Month to date heating degree days 213 274  
Since 1 July heating degree days 415 664  
Cooling Degree Days 14 1  
Month to date cooling degree days 78 29  
Year to date cooling degree days 78 29  
Growing Degree Days 28 (Base 50)    
Moisture  
Dew Point 54 °F    
Average Humidity 51    
Maximum Humidity 84    
Minimum Humidity 24    
Precipitation  
Precipitation 0.00 in 0.03 in 1.05 in (1931)
Month to date precipitation 0.44 0.85  
Year to date precipitation 0.44 0.85  
Sea Level Pressure  
Sea Level Pressure 29.69 in    
Wind  
Wind Speed 14 mph (South)    
Max Wind Speed 30 mph    
Max Gust Speed 37 mph    
Visibility 10 miles    
Events      
T = Trace of Precipitation, MM = Missing Value Source: NWS Daily Summary

Daily Weather History Graph

Daily Weather History Graph

Search for Another Location

Airport:

Trip Planner

Search our weather history database for the weather conditions in past years. The results will help you decide how hot, cold, wet, or windy it might be!

Date:

Astronomy

Jan. 29, 2013 Rise Set
Actual Time 7:25 AM CST 6:16 PM CST
Civil Twilight 7:01 AM CST 6:41 PM CST
Nautical Twilight 6:32 AM CST 7:09 PM CST
Astronomical Twilight 6:05 AM CST 7:37 PM CST
Moon 8:53 PM CST (1/29) 8:41 AM CST (1/29)
Length of Visible Light 11h 40m
Length of Day
10h 51m
Waning Gibbous, 93% of the Moon is Illuminated
Jan 29
Waning Gibbous
Feb 3
Last Quarter
Feb 10
New
Feb 17
First Quarter
Feb 25
Full

Hourly Weather History & Observations

Time (CST) Temp. Heat Index Dew Point Humidity Pressure Visibility Wind Dir Wind Speed Gust Speed Precip Events Conditions
12:56 AM 72.9 °F - 65.8 °F 79% 29.79 in 10.0 mi SSE 18.4 mph - N/A   Clear
1:56 AM 72.0 °F - 65.8 °F 81% 29.78 in 10.0 mi SSE 18.4 mph - N/A   Clear
2:56 AM 72.0 °F - 65.8 °F 81% 29.76 in 10.0 mi SSE 20.7 mph 24.2 mph N/A   Partly Cloudy
3:56 AM 72.0 °F - 65.8 °F 81% 29.76 in 10.0 mi South 13.8 mph - N/A   Scattered Clouds
4:56 AM 70.9 °F - 65.8 °F 84% 29.73 in 10.0 mi SSE 18.4 mph - N/A   Clear
5:56 AM 70.9 °F - 64.9 °F 81% 29.73 in 9.0 mi SSE 13.8 mph - N/A   Clear
6:56 AM 70.0 °F - 64.9 °F 84% 29.73 in 10.0 mi South 13.8 mph - N/A   Clear
7:56 AM 70.0 °F - 64.9 °F 84% 29.73 in 8.0 mi South 15.0 mph - N/A   Clear
8:56 AM 70.9 °F - 64.9 °F 81% 29.73 in 8.0 mi South 18.4 mph - N/A   Clear
9:56 AM 72.9 °F - 64.9 °F 76% 29.75 in 8.0 mi South 12.7 mph - N/A   Clear
10:56 AM 75.9 °F - 63.9 °F 66% 29.73 in 9.0 mi South 13.8 mph - N/A   Clear
11:56 AM 81.9 °F 83.2 °F 63.9 °F 54% 29.70 in 10.0 mi SSW 12.7 mph - N/A   Clear
12:56 PM 84.9 °F 85.4 °F 61.9 °F 46% 29.65 in 10.0 mi South 9.2 mph - N/A   Clear
1:56 PM 88.9 °F 87.5 °F 56.8 °F 34% 29.60 in 10.0 mi South 11.5 mph - N/A   Clear
2:56 PM 90.9 °F 88.5 °F 54.0 °F 28% 29.56 in 10.0 mi South 18.4 mph - N/A   Clear
3:56 PM 91.9 °F - 50.9 °F 25% 29.55 in 10.0 mi SSW 16.1 mph - N/A   Clear
4:56 PM 90.9 °F - 52.9 °F 27% 29.55 in 10.0 mi South 16.1 mph - N/A   Clear
5:56 PM 86.9 °F - 50.9 °F 29% 29.56 in 10.0 mi South 10.4 mph - N/A   Clear
6:56 PM 82.9 °F - 46.9 °F 28% 29.57 in 10.0 mi WSW 4.6 mph - N/A   Clear
7:12 PM 80.6 °F - 37.4 °F 21% 29.64 in 9.0 mi NNW 29.9 mph 36.8 mph N/A   Squalls
7:27 PM 75.2 °F - 37.4 °F 25% 29.66 in 9.0 mi North 27.6 mph 33.4 mph N/A   Clear
7:56 PM 74.8 °F - 36.0 °F 24% 29.67 in 10.0 mi North 19.6 mph 29.9 mph N/A   Clear
8:56 PM 70.9 °F - 32.0 °F 24% 29.71 in 10.0 mi NNE 16.1 mph - N/A   Clear
9:56 PM 68.0 °F - 32.0 °F 26% 29.74 in 10.0 mi NNE 9.2 mph - N/A   Clear
10:56 PM 64.9 °F - 32.0 °F 29% 29.78 in 10.0 mi NNE 8.1 mph - N/A   Clear
11:56 PM 64.4 °F - 32.0 °F 30% 29.84 in 10.0 mi NNE 13.8 mph 19.6 mph N/A   Clear